2019-093H (44886 NORAD) Tracking and Keplerian Element Data

This shows tracking and keplerian element data for the satellite.

Feedback or suggestion? Click here.




ElementValue
Catalog44886
Name2019-093H
Epoch Orbit502
Epoch Day23.1119202
Epoch Year2020
RAAN100.1103
Inclination97.9781
Eccentricity0.0015897
Argument of Perigee166.4977
Mean Anonmoly44.2067
Mean Motion14.82360129
Decay Rate6.9E-07
L11 44886U 19093H 20023.11192020 .00000069 00000-0 15340-4 0 9997
L22 44886 97.9781 100.1103 0015897 166.4977 44.2067 14.82360129 5025

Live tracking and technical data element details for 2019-093H (NORAD 44886). 2019-093H can be tracked NOW for your location showing map with azimuth and elevation plus other details from your city location.

Track the satellite on the map from your city or location and see movement details for azimuth, elevation, latitude, longitude, range, height, and movement on the map or in text.







IsCatalogInMostPopularTable: catalog: 44886, numindb: 5
Update: records affected: 1



GetName: 44886 2019-093H

Hit Count: updated at: Fri, 24 Jan 2020 10:42:25 GMT